This is the latest recevied weather packets stored in our database for station/object WA9SDJ-13. If no packets are shown the sender has not sent any weather packets the latest 1 day(s).
| Time | Temp. | Humidity | Pressure | Rain* | Wind** | Luminosity | Snow |
|---|---|---|---|---|---|---|---|
| 1777993521 | 12.78° C | 87% | 1008.3 hPa | 2.29 mm | 2.68 m/s, 13° | 81 W/m² | - |
| 1777993461 | 12.78° C | 87% | 1008.3 hPa | 2.29 mm | 2.24 m/s, 344° | 81 W/m² | - |
| 1777993401 | 12.78° C | 87% | 1008.4 hPa | 2.29 mm | 2.68 m/s, 338° | 72 W/m² | - |
| 1777993341 | 12.78° C | 87% | 1008.4 hPa | 2.03 mm | 3.13 m/s, 331° | 62 W/m² | - |
| 1777993282 | 12.78° C | 87% | 1008.5 hPa | 2.03 mm | 2.24 m/s, 333° | 53 W/m² | - |
| 1777993222 | 12.78° C | 87% | 1008.5 hPa | 1.78 mm | 1.79 m/s, 334° | 42 W/m² | - |
| 1777993160 | 12.78° C | 87% | 1008.5 hPa | 1.78 mm | 1.79 m/s, 336° | 37 W/m² | - |
| 1777993102 | 12.78° C | 87% | 1008.5 hPa | 1.78 mm | 1.79 m/s, 333° | 39 W/m² | - |
| 1777993046 | 12.78° C | 87% | 1008.5 hPa | 1.78 mm | 1.79 m/s, 324° | 44 W/m² | - |
| 1777992981 | 12.78° C | 87% | 1008.6 hPa | 2.03 mm | 1.79 m/s, 337° | 39 W/m² | - |
| 1777992921 | 12.78° C | 87% | 1008.6 hPa | 2.03 mm | 1.79 m/s, 329° | 28 W/m² | - |
| 1777992861 | 12.78° C | 87% | 1008.8 hPa | 2.29 mm | 2.24 m/s, 283° | 19 W/m² | - |
| 1777992801 | 12.78° C | 87% | 1008.7 hPa | 2.29 mm | 2.68 m/s, 326° | 14 W/m² | - |
| 1777992741 | 12.78° C | 87% | 1008.7 hPa | 2.54 mm | 2.24 m/s, 333° | 12 W/m² | - |
| 1777992682 | 12.78° C | 87% | 1008.7 hPa | 2.54 mm | 2.24 m/s, 6° | 14 W/m² | - |
| 1777992622 | 12.78° C | 87% | 1008.6 hPa | 2.54 mm | 2.24 m/s, 290° | 18 W/m² | - |
| 1777992561 | 12.78° C | 87% | 1008.5 hPa | 2.54 mm | 2.68 m/s, 296° | 21 W/m² | - |
| 1777992501 | 12.78° C | 87% | 1008.5 hPa | 2.79 mm | 3.13 m/s, 329° | 26 W/m² | - |
| 1777992441 | 12.78° C | 87% | 1008.5 hPa | 2.79 mm | 2.68 m/s, 351° | 33 W/m² | - |
| 1777992381 | 12.78° C | 87% | 1008.4 hPa | 3.05 mm | 2.68 m/s, 331° | 49 W/m² | - |
| 1777992321 | 12.78° C | 87% | 1008.3 hPa | 3.05 mm | 3.13 m/s, 347° | 44 W/m² | - |
| 1777992261 | 12.78° C | 87% | 1008.3 hPa | 3.05 mm | 3.13 m/s, 4° | 44 W/m² | - |
| 1777992201 | 12.78° C | 87% | 1008.3 hPa | 3.3 mm | 2.24 m/s, 314° | 39 W/m² | - |
| 1777992142 | 12.78° C | 87% | 1008.3 hPa | 3.3 mm | 1.79 m/s, 303° | 35 W/m² | - |
| 1777992081 | 12.78° C | 87% | 1008.3 hPa | 3.3 mm | 2.68 m/s, 310° | 32 W/m² | - |
* Rain latest hour (hover to see other rain measurements)
** Current wind speed in m/s (hover to see current wind gust speed)